Location: Palomar Observatory
(33.3560°N, 116.8630°W)
Time: 22:35:56
(UTC-07:00)

Iridium 57 - Visible Passes

Search period start: 21 August 2017 00:00
Search period end: 31 August 2017 00:00
Orbit: 776 x 779 km, 86.4° (Epoch: 21 August)

Date Brightness Start Highest point End Pass type
(mag) Time Alt. Az. Time Alt. Az. Time Alt. Az.
21 Aug 7.1 20:46:51 10° SSW 20:51:36 36° W 20:56:22 10° NNW visible
22 Aug 5.9 20:12:46 10° S 20:17:57 71° W 20:23:10 10° N visible
23 Aug 5.6 19:39:19 10° SSE 19:44:25 59° E 19:49:32 10° N visible
23 Aug 8.6 21:23:23 10° W 21:25:29 12° WNW 21:27:35 10° NW visible
24 Aug 7.9 20:47:28 10° SW 20:51:38 24° W 20:55:50 10° NNW visible
25 Aug 6.7 20:12:55 10° SSW 20:17:54 47° W 20:22:56 10° NNW visible
26 Aug 5.6 19:39:06 10° S 19:44:18 88° E 19:49:33 10° N visible
27 Aug 8.5 20:48:30 10° WSW 20:51:43 16° WNW 20:54:56 10° NW visible
28 Aug 7.5 20:13:19 10° SW 20:17:55 31° W 20:22:32 10° NNW visible
29 Aug 6.2 19:39:06 10° SSW 19:44:14 62° W 19:49:25 10° N visible
30 Aug 9.0 20:50:46 10° W 20:51:50 11° WNW 20:52:55 10° WNW visible
